When you browse on this site, cookies collect data to enhance your experience and personalize the content and advertising you see.
Visit our Privacy Policy to learn more. By continuing to use the site, you agree to this use of cookies and data.
  • In Romania
  • List of Countries
  • For 7 days
  • Water Temperature
  • Weather Map
  • Weather Widgets
  • user-avatar
    Login

    Hourly Weather Salzburg

    Today, 20 October, Sunday

    Time Temperature Precipitation Wind Pressure Humidity
    00:00 +4°C° 0 mm 3 mps 624 mmHg 87%
    01:00 +4°C° 0 mm 4 mps 624 mmHg 88%
    02:00 +4°C° 0 mm 3 mps 624 mmHg 88%
    03:00 +5°C° 0 mm 3 mps 624 mmHg 88%
    04:00 +5°C° 0 mm 3 mps 624 mmHg 88%
    05:00 +4°C° 0 mm 3 mps 624 mmHg 88%
    06:00 +4°C° 0 mm 3 mps 624 mmHg 88%
    07:00 +5°C° 0 mm 4 mps 624 mmHg 89%
    08:00 +8°C° 0 mm 3 mps 625 mmHg 82%
    09:00 +10°C° 0 mm 3 mps 626 mmHg 74%
    10:00 +12°C° 0 mm 3 mps 627 mmHg 66%
    11:00 +13°C° 0 mm 3 mps 627 mmHg 63%
    12:00 +14°C° 0 mm 3 mps 627 mmHg 60%
    13:00 +16°C° 0 mm 3 mps 627 mmHg 57%
    14:00 +13°C° 0 mm 3 mps 627 mmHg 62%
    15:00 +12°C° 0 mm 3 mps 626 mmHg 66%
    16:00 +11°C° 0 mm 3 mps 626 mmHg 71%
    17:00 +10°C° 0 mm 3 mps 625 mmHg 75%
    18:00 +9°C° 0 mm 3 mps 625 mmHg 78%
    19:00 +7°C° 0 mm 3 mps 625 mmHg 81%
    20:00 +7°C° 0 mm 3 mps 625 mmHg 81%
    21:00 +7°C° 0 mm 3 mps 626 mmHg 81%
    22:00 +7°C° 0 mm 3 mps 626 mmHg 82%
    23:00 +7°C° 0 mm 3 mps 626 mmHg 80%

    Tomorrow, 21 October, Monday

    Time Temperature Precipitation Wind Pressure Humidity
    00:00 +7°C° 0 mm 3 mps 626 mmHg 79%
    01:00 +7°C° 0 mm 3 mps 626 mmHg 77%
    02:00 +7°C° 0 mm 3 mps 626 mmHg 75%
    03:00 +7°C° 0 mm 3 mps 627 mmHg 73%
    04:00 +8°C° 0 mm 3 mps 627 mmHg 70%
    05:00 +8°C° 0 mm 3 mps 627 mmHg 70%
    06:00 +8°C° 0 mm 3 mps 627 mmHg 70%
    07:00 +8°C° 0 mm 2 mps 628 mmHg 70%
    08:00 +10°C° 0 mm 2 mps 629 mmHg 66%
    09:00 +13°C° 0 mm 2 mps 630 mmHg 63%
    10:00 +15°C° 0 mm 1 mps 631 mmHg 59%
    11:00 +16°C° 0 mm 1 mps 631 mmHg 58%
    12:00 +16°C° 0 mm 1 mps 632 mmHg 56%
    13:00 +18°C° 0 mm 1 mps 632 mmHg 55%
    14:00 +16°C° 0 mm 1 mps 632 mmHg 63%
    15:00 +15°C° 0 mm 1 mps 631 mmHg 71%
    16:00 +14°C° 0 mm 1 mps 631 mmHg 78%
    17:00 +12°C° 0 mm 1 mps 630 mmHg 83%
    18:00 +10°C° 0 mm 1 mps 630 mmHg 88%
    19:00 +8°C° 0 mm 1 mps 630 mmHg 93%
    20:00 +8°C° 0 mm 1 mps 630 mmHg 93%
    21:00 +8°C° 0 mm 1 mps 630 mmHg 92%
    22:00 +8°C° 0 mm 1 mps 630 mmHg 92%
    23:00 +7°C° 0 mm 1 mps 630 mmHg 91%

    Day after tomorrow, 22 October, Tuesday

    Time Temperature Precipitation Wind Pressure Humidity
    00:00 +7°C° 0 mm 1 mps 630 mmHg 90%
    01:00 +7°C° 0 mm 1 mps 630 mmHg 89%
    02:00 +7°C° 0 mm 1 mps 630 mmHg 91%
    03:00 +6°C° 0 mm 0 mps 630 mmHg 93%
    04:00 +5°C° 0 mm 0 mps 630 mmHg 95%
    05:00 +5°C° 0 mm 0 mps 630 mmHg 94%
    06:00 +6°C° 0 mm 0 mps 630 mmHg 94%
    07:00 +6°C° 0 mm 0 mps 630 mmHg 93%
    08:00 +8°C° 0 mm 0 mps 631 mmHg 86%
    09:00 +9°C° 0 mm 0 mps 632 mmHg 79%
    10:00 +12°C° 0 mm 1 mps 632 mmHg 72%
    11:00 +13°C° 0 mm 1 mps 633 mmHg 68%
    12:00 +14°C° 0 mm 1 mps 633 mmHg 64%
    13:00 +15°C° 0 mm 1 mps 633 mmHg 60%
    14:00 +14°C° 0 mm 1 mps 632 mmHg 66%
    15:00 +13°C° 0 mm 1 mps 632 mmHg 72%
    16:00 +13°C° 0 mm 1 mps 631 mmHg 79%
    17:00 +11°C° 0 mm 1 mps 631 mmHg 83%
    18:00 +10°C° 0 mm 1 mps 631 mmHg 86%
    19:00 +8°C° 0 mm 1 mps 630 mmHg 90%
    20:00 +8°C° 0 mm 1 mps 630 mmHg 89%
    21:00 +8°C° 0 mm 1 mps 630 mmHg 87%
    22:00 +6°C° 0 mm 2 mps 629 mmHg 85%
    23:00 +6°C° 0 mm 2 mps 629 mmHg 82%

    23 October, Wednesday

    Time Temperature Precipitation Wind Pressure Humidity
    00:00 +6°C° 0 mm 2 mps 629 mmHg 79%
    01:00 +5°C° 0 mm 2 mps 629 mmHg 76%
    02:00 +5°C° 0 mm 2 mps 628 mmHg 73%
    03:00 +5°C° 0 mm 2 mps 628 mmHg 70%
    04:00 +5°C° 0 mm 2 mps 628 mmHg 67%
    05:00 +5°C° 0 mm 2 mps 628 mmHg 64%
    06:00 +5°C° 0 mm 2 mps 627 mmHg 62%
    07:00 +5°C° 0 mm 2 mps 627 mmHg 59%
    08:00 +8°C° 0 mm 2 mps 628 mmHg 55%
    09:00 +12°C° 0 mm 2 mps 629 mmHg 51%
    10:00 +14°C° 0 mm 2 mps 630 mmHg 47%
    11:00 +15°C° 0 mm 2 mps 630 mmHg 45%
    12:00 +17°C° 0 mm 2 mps 630 mmHg 43%
    13:00 +18°C° 0 mm 2 mps 630 mmHg 41%
    14:00 +16°C° 0 mm 2 mps 629 mmHg 48%
    15:00 +15°C° 0 mm 2 mps 628 mmHg 55%
    16:00 +13°C° 0 mm 2 mps 627 mmHg 63%
    17:00 +12°C° 0 mm 2 mps 627 mmHg 65%
    18:00 +9°C° 0 mm 3 mps 626 mmHg 67%
    19:00 +7°C° 0 mm 3 mps 626 mmHg 70%
    20:00 +7°C° 0 mm 3 mps 625 mmHg 68%
    21:00 +7°C° 0 mm 3 mps 625 mmHg 66%
    22:00 +5°C° 0 mm 3 mps 625 mmHg 64%
    23:00 +5°C° 0 mm 3 mps 625 mmHg 62%

    24 October, Thursday

    Time Temperature Precipitation Wind Pressure Humidity
    00:00 +5°C° 0 mm 3 mps 625 mmHg 60%
    01:00 +5°C° 0 mm 3 mps 624 mmHg 58%
    02:00 +5°C° 0 mm 3 mps 624 mmHg 56%
    03:00 +4°C° 0 mm 3 mps 624 mmHg 55%
    04:00 +4°C° 0 mm 3 mps 624 mmHg 54%
    05:00 +4°C° 0 mm 3 mps 624 mmHg 53%
    06:00 +5°C° 0 mm 2 mps 624 mmHg 52%
    07:00 +5°C° 0 mm 2 mps 624 mmHg 51%
    08:00 +8°C° 0 mm 2 mps 625 mmHg 49%
    09:00 +11°C° 0 mm 1 mps 626 mmHg 46%
    10:00 +14°C° 0 mm 1 mps 627 mmHg 43%
    11:00 +15°C° 0 mm 1 mps 627 mmHg 42%
    12:00 +16°C° 0 mm 1 mps 627 mmHg 40%
    13:00 +18°C° 0 mm 1 mps 627 mmHg 39%
    14:00 +16°C° 0 mm 1 mps 627 mmHg 48%
    15:00 +14°C° 0 mm 1 mps 626 mmHg 57%
    16:00 +13°C° 0 mm 1 mps 625 mmHg 67%
    17:00 +11°C° 0 mm 1 mps 625 mmHg 69%
    18:00 +10°C° 0 mm 1 mps 625 mmHg 72%
    19:00 +8°C° 0 mm 1 mps 625 mmHg 75%
    20:00 +8°C° 0 mm 1 mps 625 mmHg 76%
    21:00 +7°C° 0 mm 1 mps 625 mmHg 77%
    22:00 +7°C° 0 mm 1 mps 625 mmHg 78%
    23:00 +5°C° 0 mm 0 mps 625 mmHg 78%

    25 October, Friday

    Time Temperature Precipitation Wind Pressure Humidity
    00:00 +5°C° 0 mm 0 mps 625 mmHg 79%
    01:00 +5°C° 0 mm 0 mps 625 mmHg 80%
    02:00 +4°C° 0 mm 0 mps 624 mmHg 81%
    03:00 +4°C° 0 mm 0 mps 624 mmHg 83%
    04:00 +4°C° 0 mm 0 mps 624 mmHg 84%
    05:00 +4°C° 0 mm 0 mps 624 mmHg 85%
    06:00 +4°C° 0 mm 0 mps 625 mmHg 86%
    07:00 +3°C° 0 mm 0 mps 625 mmHg 87%
    08:00 +5°C° 0 mm 0 mps 626 mmHg 81%
    09:00 +7°C° 0 mm 0 mps 627 mmHg 75%
    10:00 +10°C° 0 mm 0 mps 628 mmHg 69%
    11:00 +11°C° 0 mm 1 mps 628 mmHg 68%
    12:00 +12°C° 0 mm 1 mps 628 mmHg 66%
    13:00 +13°C° 0 mm 1 mps 629 mmHg 64%
    14:00 +12°C° 0 mm 1 mps 628 mmHg 70%
    15:00 +11°C° 0 mm 1 mps 628 mmHg 76%
    16:00 +11°C° 0 mm 1 mps 627 mmHg 82%
    17:00 +9°C° 0 mm 1 mps 627 mmHg 85%
    18:00 +8°C° 0 mm 1 mps 627 mmHg 88%
    19:00 +6°C° 0 mm 1 mps 626 mmHg 92%
    20:00 +6°C° 0 mm 1 mps 626 mmHg 90%
    21:00 +6°C° 0 mm 1 mps 626 mmHg 89%
    22:00 +6°C° 0 mm 1 mps 627 mmHg 87%
    23:00 +6°C° 0 mm 1 mps 626 mmHg 85%
    Show more